Location: Marcé
(47.5801°N, 0.3280°W)
Time: 20:41:37
(UTC+01:00)

Explorer 7 - Pass Details

Date: 01 December 2021
Orbit: 483 x 674 km, 50.3° (Epoch: 17 January)

Event Time Altitude Azimuth Distance (km) Brightness Sun altitude
Rises 07:38:28 0° 222° (SW) 2,795 10.2 -8.3°
Reaches altitude 10° 07:40:54 10° 214° (SW) 1,863 9.4 -7.9°
Maximum altitude 07:44:49 37° 147° (SSE) 855 8.4 -7.3°
Drops below altitude 10° 07:48:32 10° 79° (E) 1,766 10.3 -6.7°
Sets 07:50:47 0° 71° (ENE) 2,629 11.0 -6.4°
